User: anonymous   Login
Location: *
(50.8512°N, 5.6907°E)
Time: 00:26:44
(UTC+00:00)
Language:

Cosmos 1908 - Orbit

View from above orbital plane
View from above orbital plane
View from above satellite
View from above satellite

Ground track
Ground track

The orbit data is extracted from the following two-line orbital elements,

1 18748U 88001A   20188.31034112 +.00000139 +00000-0 +57302-5 0  9994
2 18748 082.4718 039.3358 0013449 001.7378 358.3898 15.14931854774270
Epoch (UTC): 06 July 2020 07:26:53
Eccentricity: 0.0013449
inclination: 82.4718°
perigee height: 512 km
apogee height: 530 km
right ascension of ascending node: 39.3358°
argument of perigee: 1.7378°
revolutions per day: 15.14931854
mean anomaly at epoch: 358.3898°
orbit number at epoch: 77427

The dashed part of the orbit path shows where the satellite is in the earth's shadow,  

DLR